Weather History for Fort Collins, CO

Change the Weather History Date:

Sunday, December 1, 2013

  Actual Average Record
Temperature  
Mean Temperature 42 °F -  
Max Temperature 55 °F 43 °F 64 °F (1998)
Min Temperature 28 °F 20 °F 10 °F (2004)
Degree Days  
Heating Degree Days 24    
Moisture  
Dew Point 23 °F    
Average Humidity 51    
Maximum Humidity 80    
Minimum Humidity 29    
Precipitation  
Precipitation 0.00 in - - ()
Sea Level Pressure  
Sea Level Pressure 30.02 in    
Wind  
Wind Speed 5 mph (SW)    
Max Wind Speed 23 mph    
Max Gust Speed 31 mph    
Visibility 10 miles    
Events      
Averages and records for this station are not official NWS values.
T = Trace of Precipitation, MM = Missing Value Source: NWS Daily Summary

Daily Weather History Graph

Daily Weather History Graph

Search for Another Location

Airport:

Trip Planner

Search our weather history database for the weather conditions in past years. The results will help you decide how hot, cold, wet, or windy it might be!

Date:

Astronomy

Dec. 01, 2013 Rise Set
Actual Time 7:04 AM MST 4:34 PM MST
Civil Twilight 6:33 AM MST 5:04 PM MST
Nautical Twilight 6:00 AM MST 5:38 PM MST
Astronomical Twilight 5:27 AM MST 6:10 PM MST
Moon 5:24 AM MST (12/1) 3:46 PM MST (12/1)
Length of Visible Light 10h 30m
Length of Day
9h 29m
Waning Crescent, 2% of the Moon is Illuminated
Dec 1
Waning Crescent
Dec 2
New
Dec 9
First Quarter
Dec 17
Full
Dec 25
Last Quarter

Hourly Weather History & Observations

Time (MST) Temp. Windchill Dew Point Humidity Pressure Visibility Wind Dir Wind Speed Gust Speed Precip Events Conditions
12:15 AM 35.6 °F - 21.2 °F 56% 30.15 in 10.0 mi Calm Calm - N/A   Clear
12:35 AM 33.8 °F 30.8 °F 19.4 °F 56% 30.15 in 10.0 mi WNW 3.5 mph - N/A   Clear
12:55 AM 30.2 °F - 19.4 °F 64% 30.15 in 10.0 mi Calm Calm - N/A   Clear
1:15 AM 32.0 °F - 23.0 °F 69% 30.14 in 10.0 mi Calm Calm - N/A   Clear
1:35 AM 30.2 °F - 21.2 °F 69% 30.14 in 10.0 mi Calm Calm - N/A   Clear
1:55 AM 30.2 °F 24.3 °F 23.0 °F 75% 30.14 in 10.0 mi North 5.8 mph - N/A   Clear
2:15 AM 30.2 °F 26.7 °F 24.8 °F 80% 30.14 in 10.0 mi North 3.5 mph - N/A   Clear
2:35 AM 30.2 °F 24.3 °F 21.2 °F 69% 30.14 in 10.0 mi North 5.8 mph - N/A   Clear
2:55 AM 30.2 °F - 21.2 °F 69% 30.14 in 10.0 mi Calm Calm - N/A   Clear
3:15 AM 30.2 °F 24.3 °F 19.4 °F 64% 30.14 in 10.0 mi North 5.8 mph - N/A   Clear
3:35 AM 30.2 °F 23.4 °F 19.4 °F 64% 30.13 in 10.0 mi North 6.9 mph - N/A   Clear
3:55 AM 28.4 °F 21.2 °F 19.4 °F 69% 30.14 in 10.0 mi North 6.9 mph - N/A   Clear
4:15 AM 30.2 °F 25.4 °F 21.2 °F 69% 30.13 in 10.0 mi North 4.6 mph - N/A   Clear
4:35 AM 30.2 °F 26.7 °F 21.2 °F 69% 30.13 in 10.0 mi North 3.5 mph - N/A   Clear
4:55 AM 32.0 °F 26.4 °F 21.2 °F 64% 30.12 in 10.0 mi North 5.8 mph - N/A   Clear
5:15 AM 32.0 °F 26.4 °F 21.2 °F 64% 30.13 in 10.0 mi NE 5.8 mph - N/A   Clear
5:35 AM 28.4 °F 20.4 °F 19.4 °F 69% 30.14 in 10.0 mi West 8.1 mph - N/A   Clear
5:55 AM 30.2 °F 26.7 °F 23.0 °F 75% 30.13 in 10.0 mi WNW 3.5 mph - N/A   Clear
6:15 AM 30.2 °F 26.7 °F 23.0 °F 75% 30.13 in 10.0 mi North 3.5 mph - N/A   Partly Cloudy
6:35 AM 33.8 °F - 21.2 °F 60% 30.12 in 10.0 mi Calm Calm - N/A   Partly Cloudy
6:55 AM 30.2 °F - 19.4 °F 64% 30.13 in 10.0 mi Calm Calm - N/A   Clear
7:15 AM 30.2 °F - 19.4 °F 64% 30.13 in 10.0 mi Calm Calm - N/A   Partly Cloudy
7:35 AM 30.2 °F - 19.4 °F 64% 30.13 in 10.0 mi Calm Calm - N/A   Scattered Clouds
7:55 AM 28.4 °F - 19.4 °F 69% 30.15 in 10.0 mi Calm Calm - N/A   Scattered Clouds
8:15 AM 30.2 °F 26.7 °F 24.8 °F 80% 30.15 in 10.0 mi South 3.5 mph - N/A   Partly Cloudy
8:35 AM 33.8 °F - 26.6 °F 75% 30.15 in 10.0 mi Calm Calm - N/A   Clear
8:55 AM 35.6 °F 32.8 °F 28.4 °F 75% 30.15 in 10.0 mi West 3.5 mph - N/A   Clear
9:15 AM 37.4 °F - 26.6 °F 65% 30.16 in 10.0 mi Calm Calm - N/A   Clear
9:35 AM 39.2 °F 37.0 °F 26.6 °F 61% 30.15 in 10.0 mi WSW 3.5 mph - N/A   Clear
9:55 AM 42.8 °F 37.5 °F 26.6 °F 53% 30.15 in 10.0 mi SSE 9.2 mph - N/A   Clear
10:15 AM 44.6 °F 41.4 °F 24.8 °F 46% 30.14 in 10.0 mi South 5.8 mph - N/A   Clear
10:35 AM 44.6 °F 41.4 °F 26.6 °F 49% 30.12 in 10.0 mi South 5.8 mph - N/A   Clear
10:55 AM 46.4 °F 42.9 °F 26.6 °F 46% 30.11 in 10.0 mi SSE 6.9 mph - N/A   Clear
11:15 AM 48.2 °F - 26.6 °F 43% 30.10 in 10.0 mi East 10.4 mph - N/A   Clear
11:35 AM 48.2 °F - 26.6 °F 43% 30.08 in 10.0 mi SE 4.6 mph - N/A   Clear
11:55 AM 51.8 °F - 26.6 °F 38% 30.06 in 10.0 mi South 5.8 mph - N/A   Clear
12:15 PM 53.6 °F - 24.8 °F 33% 30.04 in 10.0 mi SW 13.8 mph - N/A   Clear
12:35 PM 53.6 °F - 24.8 °F 33% 30.03 in 10.0 mi WSW 9.2 mph - N/A   Clear
12:55 PM 53.6 °F - 23.0 °F 30% 30.00 in 10.0 mi West 5.8 mph - N/A   Clear
1:15 PM 55.4 °F - 23.0 °F 29% 29.99 in 10.0 mi Calm Calm - N/A   Clear
1:35 PM 55.4 °F - 23.0 °F 29% 29.97 in 10.0 mi SSE 5.8 mph - N/A   Clear
1:55 PM 55.4 °F - 23.0 °F 29% 29.97 in 10.0 mi SW 13.8 mph - N/A   Clear
2:15 PM 51.8 °F - 21.2 °F 30% 29.96 in 10.0 mi South 8.1 mph - N/A   Clear
2:35 PM 48.2 °F - 21.2 °F 34% 29.95 in 10.0 mi South 12.7 mph - N/A   Clear
2:55 PM 48.2 °F - 21.2 °F 34% 29.95 in 10.0 mi South 9.2 mph - N/A   Clear
3:15 PM 46.4 °F 42.4 °F 24.8 °F 43% 29.94 in 10.0 mi SSE 8.1 mph - N/A   Clear
3:35 PM 46.4 °F - 23.0 °F 40% 29.93 in 10.0 mi Calm Calm - N/A   Clear
3:55 PM 46.4 °F 44.3 °F 21.2 °F 37% 29.92 in 10.0 mi ESE 4.6 mph - N/A   Clear
4:15 PM 46.4 °F - 21.2 °F 37% 29.91 in 10.0 mi Calm Calm - N/A   Clear
4:35 PM 46.4 °F 43.5 °F 21.2 °F 37% 29.90 in 10.0 mi ESE 5.8 mph - N/A   Clear
4:55 PM 44.6 °F 40.2 °F 21.2 °F 39% 29.89 in 10.0 mi ESE 8.1 mph - N/A   Clear
5:15 PM 44.6 °F - 21.2 °F 39% 29.89 in 10.0 mi Calm Calm - N/A   Clear
5:35 PM 41.0 °F 39.0 °F 21.2 °F 45% 29.88 in 10.0 mi NNE 3.5 mph - N/A   Clear
5:55 PM 41.0 °F 34.3 °F 21.2 °F 45% 29.88 in 10.0 mi North 11.5 mph - N/A   Clear
6:15 PM 39.2 °F 33.0 °F 21.2 °F 49% 29.89 in 10.0 mi North 9.2 mph - N/A   Clear
6:35 PM 39.2 °F 32.0 °F 24.8 °F 56% 29.88 in 10.0 mi NE 11.5 mph - N/A   Clear
6:55 PM 46.4 °F 40.7 °F 23.0 °F 40% 29.87 in 10.0 mi North 12.7 mph 18.4 mph N/A   Clear
7:15 PM 48.2 °F - 24.8 °F 40% 29.87 in 10.0 mi SSW 13.8 mph 21.9 mph N/A   Clear
7:35 PM 41.0 °F 34.7 °F 24.8 °F 53% 29.86 in 10.0 mi South 10.4 mph - N/A   Clear
7:55 PM 41.0 °F 35.8 °F 24.8 °F 53% 29.87 in 10.0 mi ESE 8.1 mph - N/A   Clear
8:15 PM 48.2 °F - 24.8 °F 40% 29.86 in 10.0 mi SSE 6.9 mph - N/A   Clear
8:35 PM 51.8 °F - 24.8 °F 35% 29.86 in 10.0 mi NE 3.5 mph - N/A   Clear
8:55 PM 46.4 °F 45.2 °F 24.8 °F 43% 29.86 in 10.0 mi ESE 3.5 mph - N/A   Partly Cloudy
9:15 PM 46.4 °F 42.4 °F 24.8 °F 43% 29.87 in 10.0 mi SE 8.1 mph - N/A   Scattered Clouds
9:35 PM 42.8 °F 37.5 °F 24.8 °F 49% 29.86 in 10.0 mi SSE 9.2 mph - N/A   Mostly Cloudy
9:55 PM 44.6 °F 38.4 °F 24.8 °F 46% 29.87 in 10.0 mi SW 12.7 mph 16.1 mph N/A   Scattered Clouds
10:15 PM 48.2 °F - 26.6 °F 43% 29.84 in 10.0 mi West 19.6 mph 28.8 mph N/A   Partly Cloudy
10:35 PM 51.8 °F - 26.6 °F 38% 29.85 in 10.0 mi West 9.2 mph 29.9 mph N/A   Clear
10:55 PM 48.2 °F - 24.8 °F 40% 29.86 in 10.0 mi WSW 5.8 mph - N/A   Clear
11:15 PM 51.8 °F - 24.8 °F 35% 29.87 in 10.0 mi West 13.8 mph - N/A   Clear
11:35 PM 51.8 °F - 24.8 °F 35% 29.87 in 10.0 mi West 19.6 mph 27.6 mph N/A   Clear
11:55 PM 51.8 °F - 26.6 °F 38% 29.86 in 10.0 mi West 23.0 mph 31.1 mph N/A   Clear